User: anonymous
Location: Harwich
(41.6860°N, 70.0760°W)
Time: 10:46:20
(UTC-04:00)
Language:

Cosmos 2173 Rocket - Orbit

View from above orbital plane
View from above orbital plane
View from above satellite
View from above satellite

Ground track
Ground track

The orbit data is extracted from the following two-line orbital elements,

1 21797U 91081B   14210.38360248  .00000063  00000-0  48074-4 0  4932
2 21797 082.9556 124.7080 0038669 158.8580 338.0605 13.77275814139331
Epoch (UTC): 29 July 2014 09:12:23
Eccentricity: 0.0038669
inclination: 82.9556°
perigee height: 945 km
apogee height: 1002 km
right ascension of ascending node: 124.7080°
argument of perigee: 158.8580°
revolutions per day: 13.77275814
mean anomaly at epoch: 338.0605°
orbit number at epoch: 13933

The dashed part of the orbit path shows where the satellite is in the earth's shadow,  

DLR